Location: Eschertshofen
(49.3064°N, 11.5756°E)
Time: 01:07:39
(UTC+00:00)

HJ-1C - Pass Details

Date: 18 September 2020
Orbit: 432 x 443 km, 97.1° (Epoch: 30 October)

Event Time Altitude Azimuth Distance (km) Brightness Sun altitude
Rises 18:24:42 0° 177° (S) 2,396 6.9 -11.3°
Reaches altitude 10° 18:26:44 10° 182° (S) 1,534 6.0 -11.6°
Maximum altitude 18:29:56 52° 260° (W) 547 4.2 -12.1°
Drops below altitude 10° 18:33:12 10° 338° (NNW) 1,552 6.7 -12.6°
Sets 18:35:16 0° 344° (NNW) 2,428 7.6 -12.9°
